Marshall, MI

4:17 AM EDT on April 25, 2017 (GMT -0400)
Brooks

Weather History for KRMY - May, 2013

Change the Weather History Date:

Saturday, May 25, 2013

  Actual Average (KBTL) Record (KBTL)
Temperature  
Mean Temperature 51 °F -  
Max Temperature 63 °F 67 °F 84 °F (2016)
Min Temperature 39 °F 47 °F 37 °F (2013)
Degree Days  
Heating Degree Days 14    
Growing Degree Days 1 (Base 50)    
Moisture  
Dew Point 37 °F    
Average Humidity 63    
Maximum Humidity 100    
Minimum Humidity 27    
Precipitation  
Precipitation 0.00 in - - ()
Sea Level Pressure  
Sea Level Pressure 30.33 in    
Wind  
Wind Speed 1 mph (North)    
Max Wind Speed 6 mph    
Max Gust Speed -    
Visibility 9 miles    
Events      
Averages and records for this station are not official NWS values.
T = Trace of Precipitation, MM = Missing Value Source: NWS Daily Summary

Daily Weather History Graph

Daily Weather History Graph

Search for Another Location

Airport or City:

Trip Planner

Search our weather history database for the weather conditions in past years. The results will help you decide how hot, cold, wet, or windy it might be!

Date:

Astronomy

May. 25, 2013 Rise Set
Actual Time 6:09 AM EDT 9:04 PM EDT
Civil Twilight 5:36 AM EDT 9:37 PM EDT
Nautical Twilight 4:54 AM EDT 10:19 PM EDT
Astronomical Twilight 4:05 AM EDT 11:08 PM EDT
Moon 9:51 PM EDT 6:36 AM EDT
Length of Visible Light 16h 00m
Length of Day
14h 54m
Full, 100% of the Moon is Illuminated
May 25
Full
May 31
Last Quarter
Jun 8
New
Jun 16
First Quarter
Jun 23
Full

Hourly Weather History & Observations

Time (EDT) Temp. Dew Point Humidity Pressure Visibility Wind Dir Wind Speed Gust Speed Precip Events Conditions
12:15 AM 44.6 °F 41.0 °F 87% 30.35 in 10.0 mi Calm Calm - N/A   Clear
12:35 AM 44.6 °F 41.0 °F 87% 30.34 in 10.0 mi Calm Calm - N/A   Clear
12:55 AM 44.6 °F 42.8 °F 93% 30.33 in 10.0 mi Calm Calm - N/A   Clear
1:15 AM 44.6 °F 39.2 °F 81% 30.34 in 10.0 mi Calm Calm - N/A   Clear
1:35 AM 42.8 °F 41.0 °F 93% 30.34 in 10.0 mi WNW 1.2 mph - N/A   Clear
1:55 AM 42.8 °F 41.0 °F 93% 30.34 in 10.0 mi WNW 1.2 mph - N/A   Clear
2:15 AM 42.8 °F 39.2 °F 87% 30.34 in 10.0 mi Calm Calm - N/A   Clear
2:35 AM 42.8 °F 39.2 °F 87% 30.34 in 10.0 mi Calm Calm - N/A   Clear
2:55 AM 42.8 °F 41.0 °F 93% 30.33 in 7.0 mi Calm Calm - N/A   Clear
3:15 AM 42.8 °F 39.2 °F 87% 30.33 in 7.0 mi Calm Calm - N/A   Clear
3:35 AM 42.8 °F 39.2 °F 87% 30.33 in 5.0 mi Calm Calm - N/A   Clear
3:55 AM 41.0 °F 39.2 °F 93% 30.32 in 4.0 mi Calm Calm - N/A   Clear
4:15 AM 39.2 °F 37.4 °F 93% 30.33 in 0.5 mi Calm Calm - N/A   Unknown
4:35 AM 39.2 °F 39.2 °F 100% 30.32 in 10.0 mi Calm Calm - N/A   Clear
4:55 AM 39.2 °F 37.4 °F 93% 30.32 in 7.0 mi Calm Calm - N/A   Clear
5:15 AM 39.2 °F 37.4 °F 93% 30.32 in 7.0 mi Calm Calm - N/A   Clear
5:35 AM 39.2 °F 37.4 °F 93% 30.32 in 5.0 mi Calm Calm - N/A   Clear
5:55 AM 39.2 °F 37.4 °F 93% 30.32 in 7.0 mi Calm Calm - N/A   Clear
6:15 AM 39.2 °F 37.4 °F 93% 30.32 in 1.0 mi Calm Calm - N/A   Mostly Cloudy
6:35 AM 39.2 °F 37.4 °F 93% 30.32 in 3.0 mi Calm Calm - N/A   Clear
6:55 AM 39.2 °F 37.4 °F 93% 30.33 in 4.0 mi Calm Calm - N/A   Clear
7:15 AM 39.2 °F 37.4 °F 93% 30.33 in 10.0 mi Calm Calm - N/A   Clear
7:35 AM 42.8 °F 39.2 °F 87% 30.35 in 10.0 mi Calm Calm - N/A   Clear
7:55 AM 44.6 °F 42.8 °F 93% 30.37 in 10.0 mi NW 2.3 mph - N/A   Clear
8:15 AM 44.6 °F 42.8 °F 93% 30.37 in 10.0 mi WNW 1.2 mph - N/A   Clear
8:35 AM 46.4 °F 42.8 °F 87% 30.37 in 10.0 mi Calm Calm - N/A   Clear
8:55 AM 48.2 °F 42.8 °F 82% 30.38 in 10.0 mi NNE 2.3 mph - N/A   Clear
9:15 AM 48.2 °F 44.6 °F 87% 30.38 in 10.0 mi NE 2.3 mph - N/A   Clear
9:18 AM 49.1 °F 44.2 °F 83% 30.38 in 10.0 mi Calm Calm - N/A   Clear
9:34 AM 49.8 °F 44.2 °F 81% 30.38 in 10.0 mi NE 3.5 mph - N/A   Clear
9:53 AM 51.3 °F 44.4 °F 77% 30.38 in 10.0 mi East 4.6 mph - N/A   Clear
10:14 AM 52.3 °F 44.6 °F 75% 30.38 in 10.0 mi Calm Calm - N/A   Clear
10:34 AM 53.8 °F 44.6 °F 71% 30.38 in 10.0 mi Calm Calm - N/A   Scattered Clouds
10:53 AM 54.3 °F 44.6 °F 70% 30.37 in 10.0 mi Calm Calm - N/A   Clear
11:14 AM 55.6 °F 44.6 °F 67% 30.38 in 10.0 mi Calm Calm - N/A   Clear
11:34 AM 56.5 °F 42.6 °F 60% 30.37 in 10.0 mi North 4.6 mph - N/A   Clear
11:53 AM 58.3 °F 43.9 °F 59% 30.38 in 10.0 mi Calm Calm - N/A   Clear
12:09 PM 57.2 °F 41.5 °F 56% 30.37 in 10.0 mi NNW 3.5 mph - N/A   Clear
12:35 PM 59.0 °F 37.4 °F 45% 30.37 in 10.0 mi ENE 4.6 mph - N/A   Clear
12:55 PM 60.8 °F 37.4 °F 42% 30.36 in 10.0 mi NNE 3.5 mph - N/A   Clear
1:15 PM 60.8 °F 35.6 °F 39% 30.36 in 10.0 mi West 2.3 mph - N/A   Clear
1:35 PM 60.8 °F 35.6 °F 39% 30.35 in 10.0 mi ENE 2.3 mph - N/A   Clear
1:55 PM 60.8 °F 35.6 °F 39% 30.35 in 10.0 mi West 1.2 mph - N/A   Clear
2:15 PM 62.6 °F 32.0 °F 32% 30.35 in 10.0 mi NNW 5.8 mph - N/A   Clear
2:18 PM 61.7 °F 29.5 °F 30% 30.34 in 10.0 mi Calm Calm - N/A   Clear
2:34 PM 62.4 °F 30.9 °F 31% 30.33 in 10.0 mi Calm Calm - N/A   Clear
2:54 PM 62.8 °F 31.8 °F 31% 30.33 in 10.0 mi ENE 3.5 mph - N/A   Scattered Clouds
3:14 PM 62.8 °F 30.2 °F 29% 30.32 in 10.0 mi Calm Calm - N/A   Scattered Clouds
3:34 PM 62.4 °F 31.1 °F 31% 30.32 in 7.0 mi NW 3.5 mph - N/A   Clear
3:53 PM 62.8 °F 29.8 °F 29% 30.32 in 10.0 mi Calm Calm - N/A   Clear
4:14 PM 63.0 °F 28.4 °F 27% 30.31 in 10.0 mi Calm Calm - N/A   Clear
4:34 PM 63.5 °F 31.3 °F 30% 30.30 in 10.0 mi Calm Calm - N/A   Clear
4:53 PM 62.8 °F 32.0 °F 32% 30.30 in 10.0 mi Calm Calm - N/A   Clear
5:14 PM 63.0 °F 31.8 °F 31% 30.29 in 10.0 mi Calm Calm - N/A   Clear
5:34 PM 63.5 °F 32.5 °F 31% 30.28 in 10.0 mi Calm Calm - N/A   Clear
5:54 PM 62.6 °F 31.6 °F 31% 30.29 in 10.0 mi ENE 5.8 mph - N/A   Clear
6:14 PM 62.2 °F 31.1 °F 31% 30.28 in 10.0 mi Calm Calm - N/A   Clear
6:33 PM 61.9 °F 30.2 °F 30% 30.29 in 10.0 mi North 3.5 mph - N/A   Clear
6:54 PM 60.8 °F 30.9 °F 32% 30.29 in 10.0 mi Calm Calm - N/A   Clear
7:14 PM 60.8 °F 30.7 °F 32% 30.29 in 10.0 mi NNE 3.5 mph - N/A   Clear
7:33 PM 60.6 °F 30.4 °F 32% 30.28 in 10.0 mi Calm Calm - N/A   Scattered Clouds
7:54 PM 60.1 °F 30.4 °F 33% 30.28 in 10.0 mi Calm Calm - N/A   Clear
8:14 PM 59.5 °F 32.0 °F 35% 30.28 in 10.0 mi Calm Calm - N/A   Scattered Clouds
8:33 PM 59.2 °F 32.4 °F 36% 30.28 in 10.0 mi Calm Calm - N/A   Clear
8:54 PM 57.0 °F 34.3 °F 42% 30.28 in 10.0 mi Calm Calm - N/A   Clear
9:14 PM 56.7 °F 36.5 °F 47% 30.28 in 10.0 mi Calm Calm - N/A   Clear
9:33 PM 55.9 °F 37.4 °F 50% 30.28 in 10.0 mi Calm Calm - N/A   Clear
9:54 PM 53.8 °F 38.7 °F 57% 30.29 in 10.0 mi Calm Calm - N/A   Clear
10:14 PM 53.1 °F 39.4 °F 60% 30.29 in 10.0 mi Calm Calm - N/A   Clear
10:33 PM 52.7 °F 39.7 °F 61% 30.30 in 10.0 mi Calm Calm - N/A   Clear
10:54 PM 53.1 °F 39.6 °F 60% 30.30 in 10.0 mi Calm Calm - N/A   Clear
11:14 PM 52.0 °F 39.4 °F 62% 30.30 in 10.0 mi Calm Calm - N/A   Clear
11:34 PM 49.8 °F 42.6 °F 76% 30.31 in 10.0 mi Calm Calm - N/A   Clear
11:54 PM 48.9 °F 39.7 °F 71% 30.31 in 10.0 mi Calm Calm - N/A   Clear